GW4770 Weather Reports


time (UTC)temp
C
wind
direction
speed
KPH
gust
KPH
rain 1hr
cm
rain 24hr
cm
rain mn
cm
humidity
%
barometer
mb
20260509034018 25 80 3.2 6.4 0.00 0.56 0.03 100 1016.2
20260509033019 -17 77 3.2 8.0 0.00 0.56 0.03
20260509032018 -17 70 3.2 6.4 0.03 0.56 0.03
20260509031037 -17 53 3.2 6.4 0.03 0.56 0.03
20260509030016 -17 69 3.2 6.4 0.03 0.56 0.03
20260509025017 26 52 1.6 3.2 0.03 0.56 0.03 100 1013.5
20260509024016 25 62 1.6 4.8 0.03 0.56 0.03 100 1014.8
20260509023017 -17 69 3.2 4.8 0.03 0.56 0.03
20260509022015 24 40 1.6 4.8 0.00 0.53 0.00 100 1016.1
20260509021057 -17 79 3.2 6.4 0.00 0.53 0.00
20260509020018 -17 60 1.6 4.8 0.00 0.53 0.00
20260509015037 2 68 1.6 6.4 0.00 0.53 0.00 11 1019.1
20260509014018 -17 40 1.6 3.2 0.00 0.53 0.00
20260509013037 -17 34 1.6 3.2 0.00 0.53 0.00
20260509012018 -17 34 1.6 3.2 0.00 0.53 0.00
20260509011017 -17 45 1.6 1.6 0.00 0.53 0.00
20260509010036 -17 36 1.6 3.2 0.00 0.53 0.00
20260509005017 -17 31 0.0 3.2 0.00 0.53 0.00
20260509004016 -17 43 0.0 0.0 0.00 0.53 0.00
20260509003017 -17 18 0.0 1.6 0.00 0.53 0.00
20260509002018 -17 358 0.0 1.6 0.00 0.53 0.00
20260509001019 -17 55 0.0 1.6 0.00 0.53 0.00
20260509000018 -17 37 1.6 3.2 0.00 0.53 0.00
20260508235037 -17 44 1.6 3.2 0.00 0.53 0.00
20260508234038 -17 44 1.6 3.2 0.00 0.53 0.00
20260508233017 -17 33 1.6 3.2 0.00 0.53 0.00
20260508232056 -17 58 1.6 6.4 0.00 0.53 0.00
20260508231017 -17 57 1.6 4.8 0.00 0.53 0.00
20260508230017 -17 42 1.6 3.2 0.00 0.53 0.00
20260508225017 -17 43 1.6 3.2 0.00 0.53 0.00
20260508224037 -17 43 1.6 1.6 0.00 0.53 0.00
20260508223018 -17 57 1.6 6.4 0.00 0.53 0.00
20260508222017 -17 51 1.6 3.2 0.00 0.53 0.00
20260508221018 -17 34 1.6 4.8 0.00 0.53 0.00
20260508220017 -17 42 1.6 3.2 0.00 0.53 0.00
20260508215018 -17 51 1.6 6.4 0.00 0.53 0.00
20260508214017 -17 44 1.6 3.2 0.00 0.53 0.00
20260508213018 -17 63 1.6 3.2 0.00 0.53 0.00
20260508212017 -17 41 1.6 4.8 0.00 0.53 0.00
20260508211018 -17 101 1.6 4.8 0.00 0.53 0.00
20260508210039 -17 68 1.6 6.4 0.00 0.53 0.00
20260508205018 -17 90 3.2 6.4 0.00 0.53 0.00
20260508204019 -17 103 4.8 6.4 0.00 0.53 0.00
20260508203018 -17 92 3.2 8.0 0.00 0.53 0.00
20260508202017 -17 63 3.2 6.4 0.00 0.53 0.00
20260508201018 -17 64 1.6 6.4 0.00 0.53 0.00
20260508200017 -17 78 3.2 8.0 0.00 0.53 0.00
20260508195016 -17 60 3.2 6.4 0.00 0.53 0.00
20260508194017 -17 83 3.2 6.4 0.00 0.53 0.00
20260508193016 -17 65 3.2 8.0 0.00 0.53 0.00
20260508192037 -17 65 3.2 8.0 0.00 0.53 0.00
20260508191016 -17 75 3.2 8.0 0.00 0.53 0.00
20260508190017 -17 72 3.2 8.0 0.00 0.53 0.00
20260508185016 -17 58 3.2 6.4 0.00 0.53 0.00
20260508184017 -17 81 4.8 9.7 0.00 0.53 0.00
20260508183016 -17 93 4.8 6.4 0.00 0.53 0.00
20260508182017 -17 97 3.2 8.0 0.00 0.53 0.53
20260508181017 -17 87 3.2 6.4 0.00 0.53 0.53
20260508180016 -17 102 4.8 8.0 0.00 0.53 0.53
20260508175017 -17 97 3.2 8.0 0.00 0.53 0.53
20260508174018 -17 97 3.2 8.0 0.00 0.53 0.53
20260508173019 -17 93 4.8 12.9 0.00 0.53 0.53
20260508172018 -17 101 3.2 6.4 0.00 0.53 0.53
20260508171017 -17 81 3.2 6.4 0.00 0.53 0.53
20260508170018 -17 83 4.8 8.0 0.00 0.53 0.53
20260508165017 -17 88 4.8 8.0 0.00 0.53 0.53
20260508164018 -17 78 3.2 6.4 0.00 0.53 0.53
20260508163017 -17 72 3.2 6.4 0.00 0.53 0.53
20260508162016 -17 82 4.8 8.0 0.00 0.53 0.53
20260508161017 -17 95 3.2 9.7 0.00 0.53 0.53
20260508160016 -17 91 4.8 11.3 0.00 0.53 0.53
20260508155018 -17 93 4.8 8.0 0.00 0.53 0.53
20260508154017 -17 106 3.2 8.0 0.00 0.53 0.53
20260508153018 -17 107 4.8 9.7 0.00 0.53 0.53
20260508152037 -17 94 4.8 11.3 0.00 0.53 0.53
20260508151018 -17 84 4.8 9.7 0.00 0.53 0.53
20260508150017 -17 96 4.8 8.0 0.00 0.53 0.53
20260508145016 -17 92 4.8 9.7 0.00 0.53 0.53
20260508144017 -17 88 4.8 9.7 0.00 0.53 0.53
20260508143016 -17 89 4.8 9.7 0.00 0.53 0.53
20260508142037 -17 98 4.8 11.3 0.00 0.53 0.53
20260508141017 -17 77 4.8 8.0 0.00 0.53 0.53
20260508140018 -17 103 4.8 9.7 0.00 0.53 0.53
20260508135017 21 90 12.9 117.5 0.00 0.53 0.53 100 1019.9
20260508134516 -17 62 3.2 8.0 0.00 0.53 0.53
20260508133537 -17 70 3.2 6.4 0.00 0.53 0.53
20260508132518 -17 97 3.2 8.0 0.00 0.53 0.53
20260508131519 -17 66 3.2 8.0 0.00 0.53 0.53
20260508130518 -17 83 4.8 9.7 0.13 0.53 0.53
20260508125519 -17 86 3.2 8.0 0.30 0.53 0.53
20260508124530 22 76 3.2 4.8 0.46 0.53 0.53 100 1015.9
20260508123517 22 102 3.2 16.1 0.53 0.53 0.53 100 1015.8
20260508122518 -17 84 1.6 4.8 0.53 0.53 0.53
20260508121557 -17 108 1.6 4.8 0.53 0.53 0.53
20260508120517 -17 97 3.2 6.4 0.38 0.38 0.38
20260508115517 -17 101 8.0 16.1 0.23 0.23 0.23
20260508114518 23 87 11.3 24.1 0.08 0.08 0.08 100 1013.3
20260508113524 26 97 4.8 11.3 0.00 0.00 0.00 90 1008.3
20260508112517 26 81 6.4 14.5 0.00 0.00 0.00 67 1007.9
20260508111518 27 83 4.8 9.7 0.00 0.00 0.00 58 1007.9
20260508110516 27 95 3.2 12.9 0.00 0.00 0.00 59 1007.9
20260508105517 27 94 4.8 11.3 0.00 0.00 0.00 58 1007.3
20260508104546 27 70 1.6 4.8 0.00 0.00 0.00 57 1006.3
20260508103516 27 58 3.2 6.4 0.00 0.00 0.00 56 1006.3
20260508102517 27 65 3.2 6.4 0.00 0.00 0.00 59 1007.2
20260508101516 27 59 4.8 11.3 0.00 0.00 0.00 58 1007.8
20260508100518 27 76 4.8 11.3 0.00 0.00 0.00 58 1007.4
20260508095517 28 80 4.8 8.0 0.00 0.00 0.00 55 1005.7
20260508094516 27 78 4.8 8.0 0.00 0.00 0.00 56 1006.7
20260508093516 27 74 4.8 9.7 0.00 0.00 0.00 59 1006.7
20260508092517 27 62 4.8 11.3 0.00 0.00 0.00 59 1007.4
20260508091518 27 69 3.2 8.0 0.00 0.00 0.00 59 1006.9
20260508090516 27 84 4.8 9.7 0.00 0.00 0.00 65 1006.9
20260508085517 27 78 4.8 9.7 0.00 0.00 0.00 70 1008.1
20260508084517 26 71 3.2 9.7 0.00 0.00 0.00 83 1009.9
20260508083516 27 98 4.8 9.7 0.00 0.00 0.00 76 1008.8
20260508082517 26 95 4.8 11.3 0.00 0.00 0.00 85 1010.2
20260508081518 27 80 4.8 8.0 0.00 0.00 0.00 73 1009.5
20260508080516 27 81 4.8 8.0 0.00 0.00 0.00 71 1009.3
20260508075517 27 76 4.8 8.0 0.00 0.00 0.00 69 1009.0
20260508074538 28 37 3.2 4.8 0.00 0.00 0.00 61 1006.7
20260508073516 27 96 4.8 8.0 0.00 0.00 0.00 68 1008.8
20260508072537 28 105 4.8 8.0 0.00 0.00 0.00 63 1008.0
20260508071536 27 103 4.8 9.7 0.00 0.00 0.00 64 1009.0
20260508070518 28 65 3.2 9.7 0.00 0.00 0.00 58 1007.3
20260508065517 30 76 3.2 6.4 0.00 0.00 0.00 57 1004.9
20260508064516 27 41 3.2 6.4 0.00 0.00 0.00 63 1008.9
20260508063516 28 83 4.8 11.3 0.00 0.00 0.00 64 1008.1
20260508062519 29 60 3.2 8.0 0.00 0.00 0.00 62 1006.6
20260508061518 28 73 3.2 9.7 0.00 0.00 0.00 72 1008.7
20260508060516 27 81 4.8 8.0 0.00 0.00 0.00 74 1009.8
20260508055518 29 72 3.2 8.0 0.00 0.00 0.00 59 1006.5
20260508054516 28 79 3.2 6.4 0.00 0.00 0.00 64 1008.1
20260508053537 30 76 3.2 6.4 0.00 0.00 0.00 58 1005.8
20260508052537 29 64 3.2 8.0 0.00 0.00 0.00 61 1007.5
20260508051516 30 89 3.2 6.4 0.00 0.00 0.00 67 1006.8
20260508050516 28 85 3.2 6.4 0.00 0.00 0.00 81 1008.4
20260508045517 27 66 3.2 4.8 0.00 0.00 0.00 87 1010.6
20260508044538 30 93 3.2 6.4 0.00 0.00 0.00 72 1006.6
20260508043517 28 57 1.6 4.8 0.00 0.00 0.00 85 1008.1
20260508042517 28 84 3.2 6.4 0.00 0.00 0.00 94 1008.8
20260508041518 27 72 3.2 6.4 0.00 0.00 0.00 100 1010.0
20260508040517 27 72 3.2 6.4 0.00 0.00 0.00 100 1010.6
20260508035517 26 72 1.6 4.8 0.00 0.00 0.00 100 1012.7